Location: Zagreb
(45.8000°N, 16.0000°E)
Time: 14:35:31
(UTC+02:00)

Transit 2A Rocket - Pass Details

Date: 14 August 2022
Orbit: 593 x 907 km, 66.7° (Epoch: 25 September)

Event Time Altitude Azimuth Distance (km) Brightness Sun altitude
Rises 17:34:07 0° 172° (S) 3,014 8.1 25.2°
Reaches altitude 10° 17:37:03 10° 154° (SSE) 2,051 7.1 24.7°
Maximum altitude 17:40:13 19° 110° (ESE) 1,517 6.2 24.1°
Drops below altitude 10° 17:43:17 10° 66° (ENE) 1,973 6.7 23.6°
Sets 17:46:02 0° 48° (NE) 2,857 7.5 23.1°
